Regional Weather Roundup
Issued by NWS

Home | Current Version | Previous Version | Graphics & Text | Print | Product List | Glossary On
Versions: 1 2 3 4 5 6 7 8 9 10 11 12 13 14 15 16 17 18 19 20 21 22 23 24 25 26 27 28 29 30 31 32 33 34 35 36 37 38 39 40 41 42 43 44 45 46 47 48 49 50
000
ASUS43 KFSD 240010
RWRSD

WEATHER ROUNDUP FOR SOUTH DAKOTA
NATIONAL WEATHER SERVICE SIOUX FALLS SD
700 PM CDT SUN JUL 23 2017

NOTE: "FAIR" INDICATES FEW OR NO CLOUDS BELOW 12,000 FEET WITH NO
SIGNIFICANT WEATHER AND/OR OBSTRUCTIONS TO VISIBILITY.


SDZ001>005-009-010-012>017-240100-
NORTHWEST AND NORTH CENTRAL SOUTH DAKOTA

CITY           SKY/WX    TMP DP  RH WIND       PRES   REMARKS
BUFFALO          N/A     91  47  21 S8        29.90F
FAITH            N/A     90  46  21 CALM      29.96F
MOBRIDGE       SUNNY     83  58  42 NE6       29.96S
$$

SDZ012>016-024>037-041>051-057-063-072>074-240100-
SOUTHWEST AND SOUTH CENTRAL SOUTH DAKOTA

CITY           SKY/WX    TMP DP  RH WIND       PRES   REMARKS
RAPID CTY ARPT SUNNY     91  46  21 SE12      29.98F
PIERRE         SUNNY     88  50  27 CALM      29.95F
CUSTER         SUNNY     81  45  28 SE9       30.15F
ELLSWORTH AFB  SUNNY     92  47  21 E13G22    29.97
PHILIP         SUNNY     92  48  22 E9        29.94F
PINE RIDGE     SUNNY     92  55  28 E8        29.98F
SPEARFISH      FAIR      88  46  23 E15       30.00F
WINNER         FAIR      91  50  24 NE9       29.98F
$$

SDZ004>011-016>023-039-040-240100-
NORTHEAST SOUTH DAKOTA

CITY           SKY/WX    TMP DP  RH WIND       PRES   REMARKS
ABERDEEN       SUNNY     78  60  53 E7        29.99F
WATERTOWN      SUNNY     74  60  61 NE8       30.00S
SISSETON         N/A     74  61  63 E8        29.99S
$$

SDZ017-020-022-023-036>040-048>070-240100-
SOUTHEAST SOUTH DAKOTA

CITY           SKY/WX    TMP DP  RH WIND       PRES   REMARKS
SIOUX FALLS    MOSUNNY   78  62  57 N9        29.99S
HURON          SUNNY     79  59  50 NE7       29.98F
CHAMBERLAIN    SUNNY     88  56  33 NE7       29.98S
MITCHELL       SUNNY     82  60  47 N8        29.99S
YANKTON        SUNNY     82  57  42 N9        29.98F
$$

ABBREVIATIONS USED IN REMARKS
   TC - TEMPERATURE IN CELSIUS
  WCI - WIND CHILL INDEX
   HX - HEAT INDEX
  VSB - VISIBILITY





USA.gov is the U.S. government's official web portal to all federal, state and local government web resources and services.